Weather Roundup
Issued by NWS

Home | Current Version | Previous Version | Text Only | Print | Product List | Glossary On
Versions: 1 2 3 4 5 6 7 8 9 10 11 12 13 14 15 16 17 18 19 20 21 22 23 24 25 26 27 28 29 30 31 32 33 34 35 36 37 38 39 40 41 42 43 44 45 46 47 48 49 50
000
NZUS93 KARX 051059
HRRWXR

CURRENT HOURLY OBSERVATIONS ACROSS
MUCH OF THE UPPER MISSISSIPPI VALLEY
NATIONAL WEATHER SERVICE LA CROSSE WI
600 AM CDT TUE MAY 05 2015


...SOUTHEAST MINNESOTA...


CITY           SKY/WX    TMP DP  RH WIND       PRES   REMARKS
ROCHESTER      MOCLDY    52  42  69 E9        30.17R
ROCHESTER/MAYO CLOUDY    55  40  58 E7        30.17R
WINONA         CLOUDY    54  45  71 SE6       30.19R
AUSTIN         RAIN      54  45  71 E7        30.14R
ALBERT LEA     CLOUDY    55  41  58 E6        30.14R
DODGE CENTER   MOCLDY    52  37  58 E12       30.16R
PRESTON        RAIN      52  48  87 E13       30.17R
OWATONNA       PTCLDY    52  34  50 E13       30.14S
FARIBAULT      PTCLDY    48  36  61 NE7       30.16S
$$

...ELSEWHERE IN MINNESOTA...


CITY           SKY/WX    TMP DP  RH WIND       PRES   REMARKS
MINNEAPOLIS    PTCLDY    52  30  43 NE8       30.18S
INTNL FALLS    CLEAR     28  26  92 CALM      30.23S
DULUTH         CLEAR     44  25  47 E5        30.25S
RED WING       PTCLDY    52  37  58 E10       30.18R
REDWOOD FALLS  PTCLDY    50  26  39 NE6       30.16S
MANKATO        FAIR      54  36  50 NE9       30.14F
WORTHINGTON    CLOUDY    54  32  43 NE9       30.13F
FAIRMONT       CLOUDY    54  30  40 NE6       30.12S
$$

...SOUTHWEST WISCONSIN...


CITY           SKY/WX    TMP DP  RH WIND       PRES   REMARKS
LA CROSSE      CLOUDY    57  42  57 SE5       30.19R
PRAIRIE DU CHI LGT RAIN  52  47  82 E12       30.15R
BOSCOBEL       LGT RAIN  52  48  86 NE9G17    30.19R
LONE ROCK      NOT AVBL
PLATTEVILLE    CLOUDY    51  49  92 E14       30.16R
FORT MC COY    CLOUDY    52  38  59 E6        30.21S
VIROQUA        CLOUDY    49  48  95 E14G20    30.18S
WIS DELLS      NOT AVBL
$$

...ELSEWHERE IN WISCONSIN...


CITY           SKY/WX    TMP DP  RH WIND       PRES   REMARKS
MILWAUKEE      LGT RAIN  44  39  82 NE12      30.24S
MADISON        LGT RAIN  50  45  83 E9        30.22S
GREEN BAY      CLOUDY    50  36  58 E7        30.28R
EAU CLAIRE     NOT AVBL
BLACK RVR FLS  FAIR      48  38  67 NE6       30.21S
MEDFORD        PTCLDY    40  35  81 NE6       30.25S
WAUSAU         MOCLDY    46  32  58 E8        30.25R
WIS RAPIDS     MOCLDY    50  32  50 E7        30.25R
MARSHFIELD     MOCLDY    47  33  58 E8        30.24R
RICE LAKE      CLEAR     49  33  53 E6        30.24S
$$

...NORTHEAST IOWA...


CITY           SKY/WX    TMP DP  RH WIND       PRES   REMARKS
DECORAH        CLOUDY    54  48  82 E14       30.15R
MASON CITY     CLOUDY    56  46  69 NE7       30.12S
CHARLES CITY   CLOUDY    57  54  88 E9        30.12R
OELWEIN        CLOUDY    59  59 100 E7        30.12S FOG
$$

...ELSEWHERE IN IOWA...


CITY           SKY/WX    TMP DP  RH WIND       PRES   REMARKS
DES MOINES     CLOUDY    62  60  93 S5        30.08S FOG
IOWA CITY      CLOUDY    62  62 100 CALM      30.10R
FORT DODGE     CLOUDY    54  48  82 E6        30.09S
$$

...NORTHERN ILLINOIS...


CITY           SKY/WX    TMP DP  RH WIND       PRES   REMARKS
CHICAGO-OHARE  RAIN      49  48  97 NE6       30.21R FOG
CHICAGO-MIDWAY RAIN      53  52  96 N5        30.21R FOG
MOLINE         CLOUDY    58  57  97 E7        30.09R FOG
ROCKFORD       RAIN      53  49  86 E10       30.20S FOG
PEORIA         CLOUDY    63  60  90 E10       30.13R FOG
$$

NOTE: "FAIR" INDICATES FEW OR NO CLOUDS BELOW 12,000 FEET WITH NO
SIGNIFICANT WEATHER AND/OR OBSTRUCTIONS TO VISIBILITY. WIND
SPEEDS ARE IN MILES-PER-HOUR.



USA.gov is the U.S. government's official web portal to all federal, state and local government web resources and services.